When you browse on this site, cookies collect data to enhance your experience and personalize the content and advertising you see.
Visit our Privacy Policy to learn more. By continuing to use the site, you agree to this use of cookies and data.
  • în România
  • Lista ţărilor
  • Pe 7 zile
  • Temperatura apei
  • Meteo pe hartă
  • Widget-uri
  • user-avatar
    Intrare

    Meteo pe oră la Saint-Leu-la-Foret

    Astăzi, 19 Septembrie, Joi

    Timp Temperatura Precipitaţii Vânt Presiune Umiditate
    00:00 +11°C° 0 mm 4 m/s 762 mmHg 69%
    01:00 +11°C° 0 mm 4 m/s 762 mmHg 71%
    02:00 +10°C° 0 mm 4 m/s 761 mmHg 74%
    03:00 +10°C° 0 mm 4 m/s 761 mmHg 76%
    04:00 +10°C° 0 mm 4 m/s 761 mmHg 78%
    05:00 +10°C° 0 mm 4 m/s 761 mmHg 79%
    06:00 +8°C° 0 mm 4 m/s 762 mmHg 81%
    07:00 +11°C° 0 mm 4 m/s 762 mmHg 72%
    08:00 +13°C° 0 mm 5 m/s 762 mmHg 62%
    09:00 +15°C° 0 mm 5 m/s 762 mmHg 53%
    10:00 +16°C° 0 mm 5 m/s 762 mmHg 48%
    11:00 +17°C° 0 mm 5 m/s 762 mmHg 44%
    12:00 +20°C° 0 mm 5 m/s 762 mmHg 39%
    13:00 +20°C° 0 mm 5 m/s 762 mmHg 37%
    14:00 +20°C° 0 mm 5 m/s 761 mmHg 35%
    15:00 +21°C° 0 mm 5 m/s 761 mmHg 33%
    16:00 +19°C° 0 mm 5 m/s 761 mmHg 37%
    17:00 +17°C° 0 mm 5 m/s 761 mmHg 41%
    18:00 +17°C° 0 mm 4 m/s 761 mmHg 45%
    19:00 +15°C° 0 mm 4 m/s 761 mmHg 48%
    20:00 +14°C° 0 mm 4 m/s 761 mmHg 50%
    21:00 +13°C° 0 mm 4 m/s 762 mmHg 52%
    22:00 +13°C° 0 mm 4 m/s 761 mmHg 54%
    23:00 +12°C° 0 mm 4 m/s 761 mmHg 55%

    Mâine, 20 Septembrie, Vineri

    Timp Temperatura Precipitaţii Vânt Presiune Umiditate
    00:00 +11°C° 0 mm 4 m/s 761 mmHg 57%
    01:00 +11°C° 0 mm 4 m/s 761 mmHg 58%
    02:00 +10°C° 0 mm 4 m/s 760 mmHg 59%
    03:00 +10°C° 0 mm 4 m/s 760 mmHg 60%
    04:00 +8°C° 0 mm 4 m/s 760 mmHg 60%
    05:00 +8°C° 0 mm 4 m/s 759 mmHg 60%
    06:00 +8°C° 0 mm 4 m/s 759 mmHg 61%
    07:00 +11°C° 0 mm 4 m/s 759 mmHg 54%
    08:00 +13°C° 0 mm 5 m/s 759 mmHg 48%
    09:00 +15°C° 0 mm 6 m/s 759 mmHg 41%
    10:00 +16°C° 0 mm 6 m/s 758 mmHg 37%
    11:00 +19°C° 0 mm 6 m/s 757 mmHg 32%
    12:00 +21°C° 0 mm 6 m/s 757 mmHg 28%
    13:00 +22°C° 0 mm 6 m/s 756 mmHg 27%
    14:00 +22°C° 0 mm 6 m/s 756 mmHg 25%
    15:00 +23°C° 0 mm 6 m/s 755 mmHg 24%
    16:00 +21°C° 0 mm 5 m/s 755 mmHg 28%
    17:00 +20°C° 0 mm 5 m/s 754 mmHg 31%
    18:00 +19°C° 0 mm 4 m/s 754 mmHg 34%
    19:00 +18°C° 0 mm 4 m/s 754 mmHg 37%
    20:00 +17°C° 0 mm 4 m/s 754 mmHg 40%
    21:00 +15°C° 0 mm 4 m/s 754 mmHg 43%
    22:00 +14°C° 0 mm 4 m/s 753 mmHg 46%
    23:00 +14°C° 0 mm 4 m/s 753 mmHg 49%

    Poimâine, 21 Septembrie, Sâmbătă

    Timp Temperatura Precipitaţii Vânt Presiune Umiditate
    00:00 +13°C° 0 mm 3 m/s 752 mmHg 51%
    01:00 +13°C° 0 mm 3 m/s 752 mmHg 55%
    02:00 +12°C° 0 mm 3 m/s 752 mmHg 58%
    03:00 +12°C° 0 mm 3 m/s 752 mmHg 61%
    04:00 +13°C° 0 mm 2 m/s 751 mmHg 64%
    05:00 +13°C° 0 mm 2 m/s 751 mmHg 67%
    06:00 +13°C° 0 mm 2 m/s 751 mmHg 70%
    07:00 +15°C° 0 mm 2 m/s 751 mmHg 66%
    08:00 +18°C° 0 mm 2 m/s 751 mmHg 62%
    09:00 +20°C° 0 mm 2 m/s 751 mmHg 58%
    10:00 +22°C° 0 mm 3 m/s 750 mmHg 53%
    11:00 +25°C° 0 mm 3 m/s 750 mmHg 48%
    12:00 +27°C° 0 mm 4 m/s 750 mmHg 43%
    13:00 +28°C° 0 mm 4 m/s 749 mmHg 41%
    14:00 +29°C° 0 mm 4 m/s 748 mmHg 39%
    15:00 +29°C° 0 mm 4 m/s 748 mmHg 37%
    16:00 +28°C° 0 mm 3 m/s 747 mmHg 40%
    17:00 +26°C° 0 mm 2 m/s 747 mmHg 44%
    18:00 +25°C° 0 mm 1 m/s 747 mmHg 47%
    19:00 +24°C° 0 mm 2 m/s 747 mmHg 49%
    20:00 +22°C° 0 mm 3 m/s 747 mmHg 51%
    21:00 +22°C° 0 mm 3 m/s 747 mmHg 53%
    22:00 +21°C° 0 mm 3 m/s 747 mmHg 60%
    23:00 +21°C° 0 mm 3 m/s 747 mmHg 67%

    22 Septembrie, Duminică

    Timp Temperatura Precipitaţii Vânt Presiune Umiditate
    00:00 +20°C° 0 mm 3 m/s 747 mmHg 73%
    01:00 +20°C° 0 mm 3 m/s 746 mmHg 74%
    02:00 +19°C° 0 mm 3 m/s 746 mmHg 74%
    03:00 +19°C° 0 mm 3 m/s 746 mmHg 74%
    04:00 +19°C° 0 mm 3 m/s 746 mmHg 76%
    05:00 +18°C° 0 mm 3 m/s 745 mmHg 77%
    06:00 +18°C° 0 mm 3 m/s 745 mmHg 79%
    07:00 +19°C° 0.2 mm 4 m/s 746 mmHg 77%
    08:00 +20°C° 0.2 mm 4 m/s 746 mmHg 76%
    09:00 +20°C° 0.2 mm 5 m/s 746 mmHg 75%
    10:00 +20°C° 0.2 mm 5 m/s 746 mmHg 73%
    11:00 +20°C° 0.2 mm 4 m/s 747 mmHg 70%
    12:00 +20°C° 0.2 mm 4 m/s 747 mmHg 68%
    13:00 +20°C° 0.2 mm 4 m/s 747 mmHg 67%
    14:00 +20°C° 0.2 mm 5 m/s 747 mmHg 66%
    15:00 +19°C° 0.2 mm 5 m/s 747 mmHg 66%
    16:00 +19°C° 0.1 mm 4 m/s 747 mmHg 67%
    17:00 +19°C° 0.1 mm 4 m/s 747 mmHg 69%
    18:00 +18°C° 0.1 mm 4 m/s 748 mmHg 71%
    19:00 +18°C° 0.1 mm 4 m/s 748 mmHg 72%
    20:00 +17°C° 0.1 mm 4 m/s 749 mmHg 73%
    21:00 +16°C° 0.1 mm 5 m/s 749 mmHg 75%
    22:00 +15°C° 0 mm 4 m/s 750 mmHg 76%
    23:00 +15°C° 0 mm 4 m/s 750 mmHg 78%

    23 Septembrie, Luni

    Timp Temperatura Precipitaţii Vânt Presiune Umiditate
    00:00 +14°C° 0 mm 4 m/s 750 mmHg 79%
    01:00 +14°C° 0 mm 4 m/s 751 mmHg 81%
    02:00 +13°C° 0 mm 4 m/s 751 mmHg 82%
    03:00 +12°C° 0 mm 3 m/s 751 mmHg 83%
    04:00 +12°C° 0 mm 3 m/s 751 mmHg 83%
    05:00 +12°C° 0 mm 3 m/s 751 mmHg 83%
    06:00 +11°C° 0 mm 3 m/s 752 mmHg 84%
    07:00 +13°C° 0 mm 4 m/s 752 mmHg 77%
    08:00 +15°C° 0 mm 4 m/s 752 mmHg 70%
    09:00 +18°C° 0 mm 4 m/s 752 mmHg 63%
    10:00 +19°C° 0 mm 4 m/s 752 mmHg 57%
    11:00 +20°C° 0 mm 5 m/s 752 mmHg 52%
    12:00 +21°C° 0 mm 5 m/s 751 mmHg 47%
    13:00 +22°C° 0 mm 5 m/s 751 mmHg 44%
    14:00 +22°C° 0 mm 5 m/s 751 mmHg 41%
    15:00 +23°C° 0 mm 5 m/s 751 mmHg 38%
    16:00 +21°C° 0.1 mm 4 m/s 751 mmHg 47%
    17:00 +20°C° 0.1 mm 4 m/s 751 mmHg 56%
    18:00 +18°C° 0.1 mm 4 m/s 751 mmHg 65%
    19:00 +18°C° 0.7 mm 4 m/s 751 mmHg 70%
    20:00 +17°C° 0.7 mm 4 m/s 751 mmHg 76%
    21:00 +17°C° 0.7 mm 4 m/s 752 mmHg 82%
    22:00 +16°C° 0.2 mm 5 m/s 751 mmHg 83%
    23:00 +16°C° 0.2 mm 5 m/s 751 mmHg 84%

    24 Septembrie, Marţi

    Timp Temperatura Precipitaţii Vânt Presiune Umiditate
    00:00 +16°C° 0.2 mm 5 m/s 751 mmHg 85%
    01:00 +17°C° 0.1 mm 4 m/s 751 mmHg 85%
    02:00 +17°C° 0.1 mm 4 m/s 751 mmHg 86%
    03:00 +17°C° 0.1 mm 4 m/s 750 mmHg 86%
    04:00 +17°C° 0 mm 4 m/s 750 mmHg 87%
    05:00 +17°C° 0 mm 4 m/s 750 mmHg 88%
    06:00 +17°C° 0 mm 4 m/s 750 mmHg 88%
    07:00 +17°C° 0.4 mm 4 m/s 750 mmHg 88%
    08:00 +18°C° 0.4 mm 4 m/s 750 mmHg 88%
    09:00 +17°C° 0.4 mm 5 m/s 750 mmHg 88%
    10:00 +17°C° 0.4 mm 5 m/s 750 mmHg 87%
    11:00 +17°C° 0.4 mm 6 m/s 750 mmHg 86%
    12:00 +17°C° 0.4 mm 6 m/s 749 mmHg 85%
    13:00 +17°C° 0.2 mm 6 m/s 749 mmHg 85%
    14:00 +17°C° 0.2 mm 6 m/s 749 mmHg 84%
    15:00 +17°C° 0.2 mm 6 m/s 748 mmHg 84%
    16:00 +17°C° 0.2 mm 6 m/s 748 mmHg 84%
    17:00 +19°C° 0.2 mm 5 m/s 748 mmHg 85%
    18:00 +19°C° 0.2 mm 5 m/s 747 mmHg 85%
    19:00 +19°C° 0.1 mm 5 m/s 747 mmHg 86%
    20:00 +19°C° 0.1 mm 5 m/s 747 mmHg 86%
    21:00 +17°C° 0.1 mm 5 m/s 747 mmHg 87%
    22:00 +17°C° 0.1 mm 5 m/s 747 mmHg 87%
    23:00 +17°C° 0.1 mm 5 m/s 747 mmHg 88%
    Arată mai mult